WetterOnline ( https://www.wetteronline.at )

Wetter aktuell Lulea

Aktuelles Wetter: Lulea (17m)

6-stündlich | Neueste Meldungen
Ortszeit Temperatur Wetter
Mi, 26.06. 8:00 15.0° C leicht bewölkt
Mi, 26.06. 2:00 11.2° C wolkenlos
Di, 25.06. 20:00 14.4° C wolkenlos
Di, 25.06. 14:00 17.1° C leicht bewölkt
Di, 25.06. 8:00 13.6° C leicht bewölkt
Di, 25.06. 2:00 12.5° C bewölkt
Mo, 24.06. 20:00 16.2° C leicht bewölkt
Mo, 24.06. 14:00 13.9° C wolkig
Ortszeit Temperatur Wetter
Mi, 26.06. 12:20 14° C leicht bewölkt
Mi, 26.06. 12:00 13.0° C wolkig
Mi, 26.06. 11:50 14° C leicht bewölkt
Mi, 26.06. 11:20 15° C leicht bewölkt
Mi, 26.06. 11:00 14.7° C leicht bewölkt
Mi, 26.06. 10:50 15° C -
Mi, 26.06. 10:20 14° C -
Mi, 26.06. 10:00 14.3° C leicht bewölkt
Mi, 26.06. 9:20 15° C -
Mi, 26.06. 9:00 15.0° C leicht bewölkt
Ortszeit Relative Feuchte Sichtweite
Mi, 26.06. 8:00 77% 65 km
Mi, 26.06. 2:00 92% 45 km
Di, 25.06. 20:00 66% 45 km
Di, 25.06. 14:00 42% 70 km
Di, 25.06. 8:00 57% >70 km
Di, 25.06. 2:00 64% 50 km
Mo, 24.06. 20:00 58% 45 km
Mo, 24.06. 14:00 72% 55 km
Ortszeit Relative Feuchte Sichtweite
Mi, 26.06. 12:20 82% >10 km
Mi, 26.06. 12:00 87% 12 km
Mi, 26.06. 11:50 82% >10 km
Mi, 26.06. 11:20 77% >10 km
Mi, 26.06. 11:00 76% 12 km
Mi, 26.06. 10:50 72% >10 km
Mi, 26.06. 10:20 77% >10 km
Mi, 26.06. 10:00 79% 15 km
Mi, 26.06. 9:20 77% >10 km
Mi, 26.06. 9:00 76% 15 km
Ortszeit Niederschlagsmenge Niederschlagsart
Mi, 26.06. 8:00 0.0 l/m2 in 12 Std. -
Mi, 26.06. 2:00 0.0 l/m2 -
Di, 25.06. 20:00 0.1 l/m2 in 12 Std. Regenschauer
Di, 25.06. 14:00 0.0 l/m2 -
Di, 25.06. 8:00 0.0 l/m2 in 12 Std. -
Di, 25.06. 2:00 0.0 l/m2 in 6 Std. -
Mo, 24.06. 20:00 7 l/m2 in 12 Std. Regenschauer
Mo, 24.06. 14:00 7 l/m2 in 6 Std. Schauer
Ortszeit Niederschlagsmenge Niederschlagsart
Mi, 26.06. 12:20 keine Meldung -
Mi, 26.06. 12:00 0.0 l/m2 in 1 Std. -
Mi, 26.06. 11:50 keine Meldung -
Mi, 26.06. 11:20 keine Meldung -
Mi, 26.06. 11:00 0.0 l/m2 in 1 Std. -
Mi, 26.06. 10:50 keine Meldung -
Mi, 26.06. 10:20 keine Meldung -
Mi, 26.06. 10:00 0.0 l/m2 in 1 Std. -
Mi, 26.06. 9:20 keine Meldung -
Mi, 26.06. 9:00 0.0 l/m2 in 1 Std. -
Ortszeit Stärke Spitze Richtung
km/h Bft. km/h Grad Sektor
Mi, 26.06. 8:00 14 3 22 180° S
Mi, 26.06. 2:00 0 0 11 - -
Di, 25.06. 20:00 11 2 - 210° SW
Di, 25.06. 14:00 7 2 22 320° NW
Di, 25.06. 8:00 22 4 - 330° NW
Di, 25.06. 2:00 14 3 - 270° W
Mo, 24.06. 20:00 11 2 - 200° S
Mo, 24.06. 14:00 14 3 22 190° S
Ortszeit Stärke Spitze Richtung
km/h Bft. km/h Grad Sektor
Mi, 26.06. 12:20 22 4 - 170° S
Mi, 26.06. 12:00 22 4 32 170° S
Mi, 26.06. 11:50 22 4 - 180° S
Mi, 26.06. 11:20 19 3 - 170° S
Mi, 26.06. 11:00 18 3 25 170° S
Mi, 26.06. 10:50 20 4 - 170° S
Mi, 26.06. 10:20 17 3 - 170° S
Mi, 26.06. 10:00 18 3 25 200° S
Mi, 26.06. 9:20 19 3 - 190° S
Mi, 26.06. 9:00 14 3 25 190° S
Ortszeit Untergrenze Bedeckung Gattung
total tief tief mittel hoch
Mi, 26.06. 8:00 2400 m 5/8 3/8 - Ac Ci
Mi, 26.06. 2:00 - 0/8 0/8 - - -
Di, 25.06. 20:00 - 0/8 0/8 - - -
Di, 25.06. 14:00 2100 m 4/8 4/8 Cu - -
Di, 25.06. 8:00 5100 m 5/8 5/8 - Ac Ci
Di, 25.06. 2:00 1800 m 7/8 7/8 - - -
Mo, 24.06. 20:00 2100 m 3/8 2/8 - - -
Mo, 24.06. 14:00 1800 m 6/8 3/8 Cb As -
Ortszeit Bedeckungsgrad in Achtel und Wolkenuntergrenze
Mi, 26.06. 12:20 3-4(150m) 3-4(3000m)
Mi, 26.06. 12:00 2(150m) 1(1800m) 4(6000m)
Mi, 26.06. 11:50 1-2(150m)
Mi, 26.06. 11:20 1-2(150m)
Mi, 26.06. 11:00 1(2100m) 5(6300m)
Mi, 26.06. 10:50 keine Wolken(unter 1500 m)
Mi, 26.06. 10:20 keine Wolken(unter 1500 m)
Mi, 26.06. 10:00 1(1800m) 6(6300m)
Mi, 26.06. 9:20 keine Wolken(unter 1500 m)
Mi, 26.06. 9:00 1(1800m) 6(6300m)
Ortszeit Luftdruck NN (hPa) Tendenz (hPa in 3 Std.)
Mi, 26.06. 8:00 1017 - 1,8
Mi, 26.06. 2:00 1021 - 1,5
Di, 25.06. 20:00 1023 - 1,2
Di, 25.06. 14:00 1025 - 1,0
Di, 25.06. 8:00 1026 + 0,2
Di, 25.06. 2:00 1026 - 0,1
Mo, 24.06. 20:00 1025 - 0,3
Mo, 24.06. 14:00 1026 + 0,7
Ortszeit Luftdruck NN (hPa) Tendenz (hPa in 3 Std.)
Mi, 26.06. 12:20 1015 keine Meldung
Mi, 26.06. 12:00 1016 - 1,0
Mi, 26.06. 11:50 1016 keine Meldung
Mi, 26.06. 11:20 1016 keine Meldung
Mi, 26.06. 11:00 1016 - 1,1
Mi, 26.06. 10:50 1016 keine Meldung
Mi, 26.06. 10:20 1016 keine Meldung
Mi, 26.06. 10:00 1017 - 1,1
Mi, 26.06. 9:20 1016 keine Meldung
Mi, 26.06. 9:00 1017 - 1,7
Ortszeit Schneehöhe (cm)
Mi, 26.06. 8:00 -
Mi, 26.06. 2:00 -
Di, 25.06. 20:00 -
Di, 25.06. 14:00 -
Di, 25.06. 8:00 0
Di, 25.06. 2:00 -
Mo, 24.06. 20:00 -
Mo, 24.06. 14:00 -
Ortszeit Schneehöhe (cm)
Mi, 26.06. 12:20 -
Mi, 26.06. 12:00 -
Mi, 26.06. 11:50 -
Mi, 26.06. 11:20 -
Mi, 26.06. 11:00 -
Mi, 26.06. 10:50 -
Mi, 26.06. 10:20 -
Mi, 26.06. 10:00 -
Mi, 26.06. 9:20 -
Mi, 26.06. 9:00 -
Link zu dieser Seite / Seite empfehlen

Das Wetter in ...